Flag for Denmark Weather past 2 weeks in Horsens, Denmark

Now
72 °F

Sprinkles. Broken clouds.


Feels Like: 69 °F
Forecast: 57 / 66 °F
Wind: 6 mph from Southeast

Location: Billund Lufthavn

Current Time: Jul 5, 2015 at 9:52:13 PM

Latest Report: Jul 5, 2015 at 9:20 PM


Visibility: N/A

Pressure: 29.89 "Hg

Humidity: 88%

Dew point: 68 °F

Location of HorsensLocation

Historic Weather in Horsens — Graph

°F

Horsens temperature yesterday

Maximum temperature yesterday: 81 °F (at 1:20 PM)
Minimum temperature yesterday: 55 °F (at 4:50 AM)
Average temperature yesterday: 72 °F

Past Weeks' High & Low Weather Summary

 TemperatureHumidityPressure
High82 °F (Jul 3, 5:20 PM)100% (Jun 22, 3:20 AM)30.27 "Hg (Jun 22, 3:20 AM)
Low36 °F (Jun 23, 4:50 AM)37% (Jul 2, 12:50 PM)29.62 "Hg (Jun 22, 7:20 PM)
Average61 °F75%30.04 "Hg
* Reported Jun 20 8:20 PM — Jul 5 8:20 PM, Horsens, Weather by CustomWeather, © 2015

Note: Actual official high and low records may vary slightly from our data, if they occured in-between our weather recording intervals... More about our weather records

Advertising

Horsens weather history for previous 24 hours

 ConditionsComfort  
Time TempWeatherWind HumidityBarometerVisibility
8:20 PM
Sun, Jul 5
72 °FPartly sunny.5 mph83%29.86 "HgN/A
7:50 PM73 °FPartly sunny.6 mph78%29.86 "HgN/A
7:20 PM73 °FPartly sunny.9 mph74%29.89 "HgN/A
6:50 PM72 °FPartly sunny.10 mph83%29.92 "HgN/A
6:20 PM73 °FPartly sunny.10 mph78%29.92 "HgN/A
5:50 PM73 °FPartly sunny.9 mph83%29.95 "HgN/A
5:20 PM73 °FBroken clouds.8 mph78%29.98 "HgN/A
4:50 PM75 °FThunderstorms. Broken clouds.7 mph74%29.98 "HgN/A
4:20 PM77 °FScattered clouds.2 mph69%30.01 "HgN/A
3:50 PM79 °FScattered clouds.No wind58%30.01 "HgN/A
3:20 PM79 °FPassing clouds.1 mph58%30.01 "HgN/A
2:50 PM81 °FWarm.2 mph48%30.01 "HgN/A
2:20 PM79 °FPartly sunny.5 mph58%30.01 "HgN/A
1:50 PM75 °FMild.5 mph65%30.04 "HgN/A
1:20 PM75 °FPassing clouds.6 mph74%30.04 "HgN/A
12:20 PM70 °FPartly sunny.6 mph83%30.07 "HgN/A
11:50 AM68 °FPartly sunny.6 mph83%30.07 "HgN/A
11:20 AM68 °FScattered clouds.6 mph83%30.07 "HgN/A
10:50 AM66 °FPartly sunny.6 mph88%30.07 "HgN/A
10:20 AM66 °FPartly sunny.7 mph88%30.07 "Hg6 mi
9:50 AM64 °FFog.6 mph94%30.07 "Hg3 mi
9:20 AM64 °FFog.5 mph100%30.07 "Hg1 mi
8:50 AM63 °FFog.7 mph100%30.09 "Hg1 mi
8:20 AM63 °FFog.7 mph100%30.09 "Hg0 mi
8:03 AM63 °FFog.8 mph100%30.09 "Hg1 mi
7:20 AM66 °FFog.6 mph88%30.07 "Hg4 mi
6:50 AM64 °FSunny.6 mph94%30.07 "Hg10 mi
6:20 AM64 °FFog.1 mph88%30.07 "HgN/A
5:50 AM64 °FScattered clouds.1 mph88%30.07 "HgN/A
5:20 AM63 °FPassing clouds.3 mph94%30.07 "HgN/A
4:50 AM64 °FThunderstorms. Passing clouds.1 mph88%30.07 "HgN/A
4:20 AM66 °FPartly cloudy.1 mph83%30.07 "Hg5 mi
3:50 AM66 °FPassing clouds.2 mph83%30.07 "HgN/A
3:20 AM66 °FPassing clouds.1 mph83%30.07 "HgN/A
2:50 AM66 °FMild.6 mph83%30.07 "HgN/A
2:20 AM68 °FPassing clouds.6 mph78%30.07 "HgN/A
1:50 AM68 °FMild.5 mph78%30.07 "HgN/A
1:20 AM68 °FMild.6 mph78%30.07 "HgN/A
12:50 AM70 °FMild.6 mph73%30.07 "HgN/A
12:20 AM72 °FPassing clouds.6 mph65%30.07 "HgN/A
11:50 PM
Sat, Jul 4
72 °FPassing clouds.6 mph65%30.09 "HgN/A
11:20 PM72 °FPassing clouds.6 mph65%30.09 "HgN/A
10:50 PM72 °FPartly sunny.5 mph65%30.09 "HgN/A
10:20 PM73 °FPartly sunny.6 mph61%30.09 "HgN/A
9:50 PM73 °FPassing clouds.6 mph65%30.07 "HgN/A
9:20 PM75 °FScattered clouds.5 mph61%30.07 "HgN/A
Weather by CustomWeather, © 2015

See weather overviewHow to use our weather pages